Tracking 30923 objects as of 1-Jul-2025
HD Live streaming from Space Station
objects crossing your sky now

STARLINK-3557

Track STARLINK-3557 now!
10-day predictions
STARLINK-3557 is classified as:


NORAD ID: 51802
Int'l Code: 2022-017AL
Perigee: 461.6 km
Apogee: 463.6 km
Inclination: 53.2 °
Period: 93.7 minutes
Semi major axis: 6833 km
RCS: Unknown
Launch date: February 25, 2022
Source: United States (US)
Launch site: AIR FORCE WESTERN TEST RANGE (AFWTR)
Your satellite tracking list
Your tracking list is empty




NASA's NSSDC Master Catalog

Two Line Element Set (TLE):
1 51802U 22017AL  25181.91668981  .00102487  00000-0  27774-2 0  9994
2 51802  53.2017  27.2854 0001426 115.1320 250.4972 15.36846893  5850
Source of the keplerian elements: AFSPC